Location: Unspecified
(0.0000°N, 0.0000°E)
Time: 12:08:32
(UTC+00:00)

Hubble Space Telescope - Pass Details

Date: 03 December 2019
Orbit: 536 x 540 km, 28.5° (Epoch: 10 December)

Event Time Altitude Azimuth Distance (km) Brightness Sun altitude
Rises 18:57:22 0° 303° (WNW) 2,662 4.8 -15.6°
Reaches altitude 10° 18:59:37 10° 304° (NW) 1,774 3.8 -16.1°
Maximum altitude 19:03:43 78° 30° (NNE) 547 0.6 -17.1°
Enters shadow 19:05:50 27° 113° (ESE) 1,031 1.8 -17.6°
